Regional Weather Roundup
Issued by NWS

Home | Current Version | Previous Version | Text Only | Print | Product List | Glossary On
Versions: 1 2 3 4 5 6 7 8 9 10 11 12 13 14 15 16 17 18 19 20 21 22 23 24 25 26 27 28 29 30 31 32 33 34 35 36 37 38 39 40 41 42 43 44 45 46 47 48 49 50
000
ASUS43 KLMK 301510
RWRKY
KENTUCKY REGIONAL WEATHER ROUNDUP
NATIONAL WEATHER SERVICE LOUISVILLE KY
1100 AM EDT SAT APR 30 2016

NOTE "FAIR" INDICATES FEW OR NO CLOUDS BELOW 12,000 FEET
WITH NO SIGNIFICANT WEATHER AND/OR OBSTRUCTIONS TO VISIBILITY.

KYZ001>023-026-027-061>063-070>075-301600-
WESTERN AND SOUTH CENTRAL KENTUCKY

CITY           SKY/WX    TMP DP  RH WIND       PRES   REMARKS
PADUCAH        CLOUDY    65  62  90 SE10      29.82F
HENDERSON      CLOUDY    61  55  82 SW3       29.90R
OWENSBORO      LGT RAIN  60  60 100 SE12      29.90F FOG
HOPKINSVILLE   NOT AVBL
BOWLING GREEN  LGT RAIN  63  61  93 E6        29.95R
GLASGOW        CLOUDY    60  60 100 E6        29.96F
$$

KYZ024-025-028>034-038-045-046-053-301600-
NORTH CENTRAL KENTUCKY

CITY           SKY/WX    TMP DP  RH WIND       PRES   REMARKS
LOUISVILLE/SDF LGT RAIN  60  56  86 E9        29.96F FOG
LOUISVILLE/LOU LGT RAIN  59  56  89 E7        29.98F
FORT KNOX      LGT RAIN  59  57  94 E7        29.94F FOG
$$

KYZ035>037-039>044-047>052-055>060-089>105-301600-
NORTHEAST KENTUCKY

CITY           SKY/WX    TMP DP  RH WIND       PRES   REMARKS
LEXINGTON      RAIN      59  54  83 E5        30.03R
COVINGTON      LGT RAIN  54  51  90 CALM      30.05R FOG
FRANKFORT      LGT RAIN  59  55  87 E3        30.02R FOG
$$

KYZ054-064>069-076>088-106>120-301600-
SOUTHEAST KENTUCKY

CITY           SKY/WX    TMP DP  RH WIND       PRES   REMARKS
JACKSON        CLOUDY    61  53  75 CALM      30.00R
LONDON         LGT RAIN  63  54  72 N5        30.01R
SOMERSET       DRIZZLE   61  54  77 CALM      30.05R
MIDDLESBORO    PTSUNNY   65  59  82 W3        30.01R
MONTICELLO     RAIN      62  59  90 W10       30.04
$$





USA.gov is the U.S. government's official web portal to all federal, state and local government web resources and services.